Location: Tel Aviv
(32.0670°N, 34.7670°E)
Time: 11:23:09
(UTC+02:00)

SR - All Passes

Search period start: 05 December 2023 00:00
Search period end: 15 December 2023 00:00
Orbit: 571 x 872 km, 66.7° (Epoch: 04 December)

Date Brightness Start Highest point End Pass type
(mag) Time Alt. Az. Time Alt. Az. Time Alt. Az.
05 Dec - 10:16:40 10° S 10:21:53 60° ESE 10:27:32 10° NNE daylight
05 Dec - 12:00:39 10° W 12:04:20 18° NW 12:08:11 10° N daylight
05 Dec - 19:03:21 10° N 19:07:08 18° NE 19:10:45 10° E visible
05 Dec - 20:44:00 10° NNW 20:49:34 59° WSW 20:54:41 10° S night (unlit)
06 Dec - 09:26:14 10° SSE 09:30:38 27° ESE 09:35:18 10° NE daylight
06 Dec - 11:07:26 10° WSW 11:12:23 35° WNW 11:17:39 10° N daylight
06 Dec - 19:52:25 10° NNW 19:58:04 63° ENE 20:03:16 10° SE visible
06 Dec - 21:36:45 10° WNW 21:39:17 13° WSW 21:41:44 10° SW night (unlit)
07 Dec - 08:38:04 10° ESE 08:39:35 11° E 08:41:07 10° E daylight
07 Dec - 10:15:19 10° SSW 10:20:41 75° WNW 10:26:28 10° NNE daylight
07 Dec - 12:02:39 10° NW 12:03:41 10° NW 12:04:43 10° NW daylight
07 Dec - 19:01:22 10° N 19:06:18 30° NE 19:10:56 10° ESE visible
07 Dec - 20:43:19 10° NW 20:48:11 31° WSW 20:52:44 10° SSW night (unlit)
08 Dec - 09:24:06 10° S 09:29:15 50° ESE 09:34:45 10° NE daylight
08 Dec - 11:07:23 10° W 11:11:31 21° NW 11:15:49 10° N daylight
08 Dec - 18:11:06 10° NNE 18:14:16 15° NE 18:17:20 10° E visible
08 Dec - 19:51:15 10° NNW 19:56:53 72° WSW 20:02:03 10° SSE visible
09 Dec - 08:33:58 10° SSE 08:38:01 22° ESE 08:42:17 10° NE daylight
09 Dec - 10:14:28 10° SW 10:19:37 42° WNW 10:25:05 10° NNE daylight
09 Dec - 18:59:47 10° NNW 19:05:19 52° ENE 19:10:25 10° SE visible
09 Dec - 20:43:20 10° WNW 20:46:41 16° WSW 20:49:53 10° SW visible
10 Dec - 09:22:34 10° SSW 09:27:58 89° WNW 09:33:46 10° NNE daylight
10 Dec - 11:08:24 10° WNW 11:10:46 13° NW 11:13:11 10° NNW daylight
10 Dec - 18:08:52 10° N 18:13:29 25° NE 18:17:50 10° ESE visible
10 Dec - 19:50:25 10° NW 19:55:32 38° WSW 20:00:17 10° S visible
11 Dec - 08:31:34 10° S 08:36:34 41° ESE 08:41:54 10° NE daylight
11 Dec - 10:14:11 10° WSW 10:18:40 25° NW 10:23:22 10° N daylight
11 Dec - 17:19:01 10° NNE 17:21:23 13° NE 17:23:40 10° ENE visible
11 Dec - 18:58:31 10° NNW 19:04:10 87° WSW 19:09:21 10° SSE visible
12 Dec - 07:41:47 10° SE 07:45:23 18° ESE 07:49:08 10° ENE daylight
12 Dec - 09:21:32 10° SW 09:26:49 50° WNW 09:32:27 10° NNE daylight
12 Dec - 18:07:10 10° NNW 18:12:32 43° ENE 18:17:29 10° SE visible
12 Dec - 19:50:07 10° WNW 19:54:03 20° WSW 19:57:45 10° SSW visible
13 Dec - 08:29:50 10° SSW 08:35:13 76° ESE 08:41:01 10° NNE daylight
13 Dec - 10:14:43 10° W 10:17:52 15° NW 10:21:05 10° NNW daylight
13 Dec - 17:16:23 10° N 17:20:37 21° NE 17:24:37 10° ESE visible
13 Dec - 18:57:32 10° NW 19:02:50 46° WSW 19:07:43 10° S visible
14 Dec - 07:39:04 10° S 07:43:52 34° ESE 07:48:59 10° NE daylight
14 Dec - 09:21:02 10° WSW 09:25:48 29° NW 09:30:50 10° N daylight
14 Dec - 16:27:32 10° NE 16:28:26 10° NE 16:29:20 10° NE daylight
14 Dec - 18:05:45 10° NNW 18:11:24 78° ENE 18:16:33 10° SSE visible
